Weather History for Bismarck, ND

Change the Weather History Date:

Thursday, October 3, 2013

  Actual Average Record
Temperature  
Mean Temperature 51 °F 51 °F  
Max Temperature 57 °F 64 °F 87 °F (1987)
Min Temperature 45 °F 37 °F 16 °F (1989)
Degree Days  
Heating Degree Days 14 14  
Month to date heating degree days 38 42  
Since 1 July heating degree days 169 328  
Cooling Degree Days 0 0  
Month to date cooling degree days 0 0  
Year to date cooling degree days 555 519  
Moisture  
Dew Point 38 °F    
Average Humidity 66    
Maximum Humidity 89    
Minimum Humidity 43    
Precipitation  
Precipitation 0.00 in 0.05 in 0.93 in (1915)
Month to date precipitation T 0.14  
Year to date precipitation 20.67 15.54  
Snow  
Snow 0.00 in 0.10 in T in (2012)
Month to date snowfall 0.0 0.1  
Since 1 July snowfall 0.0 0.3  
Since 1 September snowfall 0.0 0.3  
Snow Depth 0.00 in    
Sea Level Pressure  
Sea Level Pressure 30.07 in    
Wind  
Wind Speed 10 mph (NE)    
Max Wind Speed 20 mph    
Max Gust Speed 24 mph    
Visibility 10 miles    
Events      
T = Trace of Precipitation, MM = Missing Value Source: NWS Daily Summary

Daily Weather History Graph

Daily Weather History Graph

Search for Another Location

Airport:

Trip Planner

Search our weather history database for the weather conditions in past years. The results will help you decide how hot, cold, wet, or windy it might be!

Date:

Astronomy

Oct. 03, 2013 Rise Set
Actual Time 7:44 AM CDT 7:18 PM CDT
Civil Twilight 7:14 AM CDT 7:48 PM CDT
Nautical Twilight 6:39 AM CDT 8:23 PM CDT
Astronomical Twilight 6:03 AM CDT 8:59 PM CDT
Moon 6:16 AM CDT (10/3) 6:29 PM CDT (10/3)
Length of Visible Light 12h 33m
Length of Day
11h 33m
Waning Crescent, 2% of the Moon is Illuminated
Oct 3
Waning Crescent
Oct 4
New
Oct 11
First Quarter
Oct 18
Full
Oct 26
Last Quarter

Hourly Weather History & Observations

Time (CDT) Temp. Windchill Dew Point Humidity Pressure Visibility Wind Dir Wind Speed Gust Speed Precip Events Conditions
12:52 AM 48.0 °F - 41.0 °F 77% 30.02 in 10.0 mi WNW 3.5 mph - N/A   Clear
1:52 AM 45.0 °F - 41.0 °F 86% 30.00 in 10.0 mi Calm Calm - N/A   Clear
2:52 AM 46.9 °F - 42.1 °F 83% 30.01 in 10.0 mi Calm Calm - N/A   Partly Cloudy
3:52 AM 46.9 °F - 41.0 °F 80% 30.02 in 10.0 mi WNW 3.5 mph - N/A   Mostly Cloudy
4:52 AM 46.0 °F 44.8 °F 41.0 °F 83% 30.00 in 10.0 mi North 3.5 mph - N/A   Scattered Clouds
5:52 AM 50.0 °F - 36.0 °F 59% 30.01 in 10.0 mi NNW 3.5 mph - N/A   Mostly Cloudy
6:52 AM 48.0 °F - 39.0 °F 71% 30.04 in 10.0 mi NNW 5.8 mph - N/A   Overcast
7:52 AM 46.9 °F - 39.0 °F 74% 30.06 in 9.0 mi ENE 5.8 mph - N/A   Mostly Cloudy
8:52 AM 48.0 °F - 37.9 °F 68% 30.06 in 10.0 mi NE 9.2 mph - N/A   Mostly Cloudy
9:52 AM 50.0 °F - 39.0 °F 66% 30.06 in 10.0 mi NE 8.1 mph - N/A   Overcast
10:52 AM 52.0 °F - 39.0 °F 61% 30.06 in 10.0 mi ENE 11.5 mph - N/A   Overcast
11:52 AM 53.1 °F - 37.9 °F 57% 30.07 in 10.0 mi ENE 12.7 mph - N/A   Overcast
12:52 PM 54.0 °F - 37.0 °F 53% 30.07 in 10.0 mi ENE 11.5 mph 20.7 mph N/A   Overcast
1:52 PM 55.0 °F - 37.9 °F 53% 30.07 in 10.0 mi ENE 12.7 mph - N/A   Overcast
2:52 PM 55.9 °F - 39.0 °F 53% 30.06 in 10.0 mi ENE 10.4 mph - N/A   Overcast
3:52 PM 55.9 °F - 39.0 °F 53% 30.07 in 10.0 mi ENE 12.7 mph - N/A   Overcast
4:52 PM 57.0 °F - 36.0 °F 45% 30.08 in 10.0 mi ENE 12.7 mph - N/A   Partly Cloudy
5:52 PM 55.9 °F - 34.0 °F 44% 30.09 in 10.0 mi ENE 13.8 mph - N/A   Clear
6:52 PM 55.0 °F - 37.0 °F 51% 30.11 in 10.0 mi NNE 10.4 mph - N/A   Clear
7:52 PM 53.1 °F - 37.9 °F 57% 30.13 in 10.0 mi NE 13.8 mph - N/A   Mostly Cloudy
8:52 PM 52.0 °F - 36.0 °F 54% 30.16 in 10.0 mi NNE 13.8 mph - N/A   Partly Cloudy
9:52 PM 51.1 °F - 36.0 °F 56% 30.17 in 10.0 mi NE 11.5 mph - N/A   Overcast
11:52 PM 48.0 °F - 37.0 °F 66% 30.19 in 10.0 mi NE 16.1 mph - N/A   Overcast